sat.trackr.live / text

‹ back to catalog

STARLINK-32018

NORAD 60105 · 2024-117Q

PAYLOAD ACTIVE UNKNOWN

§ Identity

Operator
Country
US
Launch date
2024-06-23
Launch site
AFETR
Launch vehicle
Mass (kg)
RCS (m²)

Purposes: comms

External: N2YO · Heavens-Above · Gunter

§ Orbital elements

Epoch: 2026-09-21T13:19:17.880384Z

Period
93.85 min
Inclination
53.1605°
Eccentricity
0.0001441
Mean motion
15.34389045 rev/d
Perigee alt
461.8 km
Apogee alt
463.7 km
Semi-major
6,840.9 km
B*
5.2746e-6
RAAN
204.5630°
Arg perigee
90.7250°
Mean anomaly
269.3918°
Rev number
12,691

§ Raw data

STARLINK-320181 60105U 24117Q   26264.55506806 -.00000198  00000+0  52746-5 0  99992 60105  53.1605 204.5630 0001441  90.7250 269.3918 15.34389045126916

JSON: /api/v1/satellites/60105 · /tle

For live sub-satellite position, see the globe view (requires WebGL).

§ Visibility from observer

Set your observer location to see the next 7 days of passes ≥ 10°. The values pass through the URL so the page stays shareable.

No JS? Fill the form by hand. The geolocation button needs JavaScript.